TimeMDT,TemperatureF,Dew PointF,Humidity,Sea Level PressureIn,VisibilityMPH,Wind Direction,Wind SpeedMPH,Gust SpeedMPH,PrecipitationIn,Events,Conditions,WindDirDegrees,DateUTC
12:53 AM,34.0,21.9,61,30.40,10.0,NNW,8.1,-,N/A,,Overcast,340,2012-10-06 06:53:00
1:53 AM,33.1,25.0,72,30.41,10.0,NW,8.1,-,N/A,,Overcast,320,2012-10-06 07:53:00
2:53 AM,30.0,24.1,79,30.44,10.0,NNW,9.2,-,N/A,,Partly Cloudy,330,2012-10-06 08:53:00
3:53 AM,28.9,23.0,78,30.44,10.0,WNW,5.8,-,N/A,,Scattered Clouds,300,2012-10-06 09:53:00
4:53 AM,30.0,21.9,72,30.43,10.0,NW,5.8,-,N/A,,Mostly Cloudy,310,2012-10-06 10:53:00
5:53 AM,27.0,21.9,81,30.45,10.0,Calm,Calm,-,N/A,,Clear,0,2012-10-06 11:53:00
6:53 AM,24.1,19.9,84,30.47,10.0,South,4.6,-,N/A,,Scattered Clouds,170,2012-10-06 12:53:00
7:07 AM,23.0,21.2,93,30.38,10.0,South,4.6,-,N/A,,Mostly Cloudy,170,2012-10-06 13:07:00
7:53 AM,28.0,24.1,85,30.48,10.0,Calm,Calm,-,N/A,,Overcast,0,2012-10-06 13:53:00
8:53 AM,28.9,24.1,82,30.48,10.0,Calm,Calm,-,N/A,,Partly Cloudy,0,2012-10-06 14:53:00
9:53 AM,33.1,23.0,66,30.48,10.0,Calm,Calm,-,N/A,,Clear,0,2012-10-06 15:53:00
10:53 AM,35.1,21.9,59,30.45,10.0,SSW,3.5,-,N/A,,Clear,200,2012-10-06 16:53:00
11:53 AM,36.0,21.0,55,30.44,10.0,Calm,Calm,-,N/A,,Scattered Clouds,0,2012-10-06 17:53:00
12:53 PM,37.9,19.0,47,30.42,10.0,Calm,Calm,-,N/A,,Clear,0,2012-10-06 18:53:00
1:53 PM,43.0,19.0,38,30.37,10.0,NE,3.5,-,N/A,,Clear,40,2012-10-06 19:53:00
2:53 PM,43.0,18.0,37,30.35,10.0,North,4.6,-,N/A,,Clear,10,2012-10-06 20:53:00
3:53 PM,43.0,17.1,35,30.33,10.0,ENE,5.8,-,N/A,,Clear,70,2012-10-06 21:53:00
4:53 PM,44.1,17.1,34,30.30,10.0,East,10.4,-,N/A,,Clear,90,2012-10-06 22:53:00
5:53 PM,42.1,19.0,40,30.30,10.0,ESE,6.9,-,N/A,,Clear,120,2012-10-06 23:53:00
6:53 PM,37.0,21.9,54,30.32,10.0,ESE,5.8,-,N/A,,Clear,120,2012-10-07 00:53:00
7:53 PM,33.1,24.1,70,30.33,10.0,SE,8.1,-,N/A,,Clear,140,2012-10-07 01:53:00
8:53 PM,32.0,21.9,66,30.33,10.0,SSE,8.1,-,N/A,,Clear,160,2012-10-07 02:53:00
10:53 PM,30.0,24.1,79,30.31,10.0,South,5.8,-,N/A,,Overcast,190,2012-10-07 04:53:00
11:53 PM,30.0,23.0,75,30.31,10.0,South,6.9,-,N/A,,Overcast,170,2012-10-07 05:53:00